DateTimeUTC,F1_A11,F1_S11,BsB_S11,BsG_S11,BsR_S11,BbsB_S11,BbsG_S11,BbsR_S11,BaB_A11,BaG_A11,BaR_A11,Tu_S11,T_S11,Uu_S11,U_S11,P_S11,T1_A11
2021-12-16T17:00:00Z,00000200,21000000,,,,,,,0000.33,0000.02,0000.32,20.6,27.4,,00.0,0642.4,31.2
2021-12-16T17:01:00Z,00000200,21000000,,,,,,,0000.11,-000.11,-000.32,20.6,27.4,,00.0,0642.4,31.2
2021-12-16T17:02:00Z,00000200,21000000,,,,,,,-000.14,0000.13,0000.13,20.6,27.4,,00.0,0642.4,31.2
2021-12-16T17:03:00Z,00000200,61000000,,,,,,,0000.22,0000.18,0000.26,20.6,27.4,,00.0,0642.4,31.2
2021-12-16T17:04:00Z,00000200,41000000,0000.41,0000.03,-000.52,0001.03,-000.15,0000.04,0000.48,0000.15,-000.19,20.7,27.3,,00.0,0643.2,31.2
2021-12-16T17:05:00Z,00000200,01000000,-000.16,-000.05,-000.36,-000.16,0000.20,0000.06,-000.07,0000.30,0000.48,20.8,27.3,,00.0,0643.3,31.2
2021-12-16T17:06:00Z,00000200,01000000,-000.50,-000.25,-000.18,0000.11,0000.16,0000.13,-000.19,0000.01,-000.14,20.8,27.2,,00.0,0643.3,31.2
2021-12-16T17:07:00Z,00000200,01000000,0000.22,-000.03,-000.02,0000.23,0000.08,0000.10,0000.36,0000.13,-000.08,20.9,27.3,,00.0,0643.3,31.2
2021-12-16T17:08:00Z,00000200,01000000,-000.18,-000.35,-000.37,0000.37,0000.20,-000.35,0000.11,-000.06,0000.37,20.9,27.3,,00.0,0643.3,31.2
2021-12-16T17:09:00Z,00000200,01000000,0000.47,-000.18,0000.00,-000.01,0000.14,-000.14,-000.22,-000.01,-000.01,20.9,27.3,,00.0,0643.2,31.2
2021-12-16T17:10:00Z,00000200,01000000,-000.01,-000.28,-000.36,0000.16,0000.17,-000.07,0000.19,0000.72,0000.10,21.0,27.3,,00.0,0643.2,31.2
2021-12-16T17:11:00Z,00000200,01000000,0000.07,-000.07,-000.46,-000.46,0000.10,-000.29,0000.27,-000.19,0000.20,21.0,27.4,,00.0,0643.3,31.2
2021-12-16T17:12:00Z,00000200,01000000,-000.64,-000.10,0000.15,-000.36,0000.00,-000.07,0000.05,-000.04,-000.01,21.0,27.4,,00.0,0643.3,31.2
2021-12-16T17:13:00Z,00000200,01000000,0000.80,-000.29,-000.46,-000.11,-000.05,-000.05,0000.24,0000.22,-000.00,21.1,27.4,,00.0,0643.3,31.2
2021-12-16T17:14:00Z,00000200,01000000,-000.29,-000.14,-000.10,0000.09,0000.20,-000.08,-000.06,0000.28,0000.14,21.1,27.4,,00.0,0643.3,31.2
2021-12-16T17:15:00Z,00000200,01000000,0000.35,-000.18,-000.42,0000.13,0000.13,-000.12,-000.25,-000.17,-000.11,21.1,27.4,,00.0,0643.3,31.2
2021-12-16T17:16:00Z,00000200,01000000,0000.35,-000.20,-000.03,-000.13,-000.04,-000.14,0000.24,-000.25,0000.18,21.1,27.4,,00.0,0643.3,31.2
2021-12-16T17:17:00Z,00000200,01000000,0000.18,-000.28,-000.19,0000.54,0000.01,-000.26,-000.34,0000.00,-000.27,21.1,27.4,,00.0,0643.3,31.2
2021-12-16T17:18:00Z,00000200,01000000,0000.07,-000.39,-000.18,0000.21,0000.11,0000.16,0000.48,0000.37,0000.13,21.1,27.4,,00.0,0643.3,31.2
2021-12-16T17:19:00Z,00000200,01000000,0000.30,0000.03,0000.26,0000.58,0000.05,-000.02,0000.07,0000.08,0000.39,21.1,27.4,,00.0,0643.3,31.2
2021-12-16T17:20:00Z,00000200,01000000,-000.21,-000.06,0000.19,-000.03,-000.20,0000.20,0000.23,0000.20,-000.13,21.1,27.4,,00.0,0643.3,31.2
2021-12-16T17:21:00Z,00000200,01000000,0000.16,-000.13,0000.33,-000.10,-000.10,0000.27,-000.14,0000.02,-000.07,21.1,27.4,,00.0,0643.2,31.2
2021-12-16T17:22:00Z,00000200,01000000,0000.42,-000.11,0000.16,-000.03,-000.09,-000.01,0000.11,0000.00,0000.06,21.2,27.5,,00.0,0643.2,31.2
2021-12-16T17:23:00Z,00000200,01000000,0000.75,-000.07,-000.01,0000.35,-000.12,-000.39,0000.02,0000.39,0000.06,21.2,27.5,,00.0,0643.2,31.2
2021-12-16T17:24:00Z,00000200,01000000,-000.13,-000.17,-000.13,0000.06,-000.09,-000.17,0000.43,-000.10,-000.09,21.3,27.5,,00.0,0643.3,31.2
2021-12-16T17:25:00Z,00000200,01000000,0000.20,-000.23,0000.21,-000.06,0000.29,-000.37,-000.11,-000.05,0000.56,21.3,27.5,,00.0,0643.2,31.2
2021-12-16T17:26:00Z,00000200,01000000,-000.39,-000.33,-000.37,-000.12,0000.07,-000.40,-000.17,0000.09,-000.27,21.3,27.5,,00.0,0643.2,31.3
2021-12-16T17:27:00Z,00000200,01000000,0000.41,-000.20,0000.05,0000.07,0000.19,0000.16,0000.14,0000.05,0000.34,21.3,27.6,,00.0,0643.1,31.3
2021-12-16T17:28:00Z,00000200,01000000,0000.24,-000.24,0000.09,0000.20,-000.10,-000.09,0000.13,-000.21,-000.09,21.3,27.6,,00.0,0643.1,31.2
2021-12-16T17:29:00Z,00000200,01000000,0000.07,0000.07,-000.27,0000.31,0000.16,-000.27,-000.05,0000.39,-000.18,21.2,27.5,,00.0,0643.1,31.2
2021-12-16T17:30:00Z,00000200,01000000,-000.78,-000.29,0000.17,0000.10,-000.11,-000.08,0000.28,0000.05,0000.17,21.1,27.5,,00.0,0643.0,31.2
2021-12-16T17:31:00Z,00000200,01000000,0000.31,0000.01,-000.04,-000.61,0000.11,-000.05,-000.18,-000.35,-000.04,21.0,27.4,,00.0,0643.0,31.1
2021-12-16T17:32:00Z,00000200,01000000,0000.72,-000.07,0000.19,-000.17,-000.05,0000.15,0000.06,-000.03,-000.13,20.9,27.4,,00.0,0643.0,31.1
2021-12-16T17:33:00Z,00000200,01000000,-000.35,-000.29,-000.14,0000.43,0000.10,0000.08,0000.06,0000.05,0000.21,20.9,27.4,,00.0,0642.9,31.1
2021-12-16T17:34:00Z,00000200,01000000,-000.62,-000.01,-000.13,-000.02,0000.33,-000.07,-000.23,0000.09,-000.13,20.9,27.3,,00.0,0642.9,31.2
2021-12-16T17:35:00Z,00000200,01000000,0000.41,-000.10,-000.05,0000.41,-000.05,-000.09,0000.46,0000.33,0000.05,20.9,27.3,,00.0,0642.8,31.2
2021-12-16T17:36:00Z,00000200,01000000,-000.53,-000.21,0000.00,-000.04,-000.12,0000.35,-000.15,-000.16,-000.21,20.9,27.3,,00.0,0642.9,31.2
2021-12-16T17:37:00Z,00000200,01000000,0000.09,-000.02,-000.28,0000.41,0000.10,0000.09,-000.07,0000.38,0000.37,21.0,27.4,,00.0,0642.9,31.2
2021-12-16T17:38:00Z,00000200,01000000,0000.46,-000.20,-000.21,0000.22,0000.23,-000.22,0000.30,-000.24,0000.01,20.9,27.4,,00.0,0642.9,31.2
2021-12-16T17:39:00Z,00000200,01000000,-000.21,-000.39,-000.03,-000.52,0000.09,-000.21,-000.13,-000.07,-000.10,20.9,27.4,,00.0,0642.9,31.2
2021-12-16T17:40:00Z,00000200,01000000,0000.26,-000.48,0000.00,-000.10,-000.01,-000.11,-000.26,-000.03,0000.18,20.8,27.3,,00.0,0642.9,31.2
2021-12-16T17:41:00Z,00000200,01000000,0000.38,0000.10,-000.35,0000.60,0000.05,-000.34,0000.59,-000.02,-000.10,20.7,27.3,,00.0,0642.8,31.1
2021-12-16T17:42:00Z,00000200,01000000,0000.61,-000.32,-000.47,0000.46,0000.30,-000.15,-000.33,0000.03,0000.06,20.7,27.2,,00.0,0642.7,31.1
2021-12-16T17:43:00Z,00000200,01000000,0001.08,0000.02,0000.01,0000.65,0000.03,0000.07,0000.05,0000.25,-000.23,20.6,27.2,,00.0,0642.8,31.1
2021-12-16T17:44:00Z,00000200,01000000,-000.33,-000.02,0000.11,0000.15,-000.00,0000.16,0000.09,-000.16,0000.09,20.5,27.2,,00.0,0642.8,31.1
2021-12-16T17:45:00Z,00000200,01000000,-000.54,-000.10,-000.23,-000.24,-000.02,-000.00,0000.14,0000.04,0000.04,20.4,27.1,,00.0,0642.7,31.1
2021-12-16T17:46:00Z,00000200,01000000,0000.45,-000.01,0000.07,-000.08,0000.23,0000.17,-000.33,-000.33,-000.09,20.4,27.1,,00.0,0642.7,31.1
2021-12-16T17:47:00Z,00000200,01000000,0000.62,0000.03,0000.19,0000.60,0000.02,-000.04,0000.17,0000.06,0000.13,20.3,27.0,,00.0,0642.7,31.1
2021-12-16T17:48:00Z,00000200,01000000,-000.05,-000.10,-000.21,0000.48,-000.32,-000.39,-000.25,0000.07,-000.30,20.3,27.0,,00.0,0642.7,31.1
2021-12-16T17:49:00Z,00000200,01000000,0000.56,0000.01,-000.19,0001.02,0000.22,-000.19,0000.16,0000.20,0000.32,20.3,26.9,,00.0,0642.7,31.1
2021-12-16T17:50:00Z,00000200,01000000,0000.08,-000.09,-000.13,-000.14,0000.21,-000.05,-000.13,-000.21,0000.18,20.3,26.9,,00.0,0642.6,31.1
2021-12-16T17:51:00Z,00000200,01000000,0001.33,0000.15,-000.11,0000.30,0000.03,-000.04,0000.14,0000.49,-000.01,20.4,27.0,,00.0,0642.6,31.1
2021-12-16T17:52:00Z,00000200,01000000,-000.41,-000.32,-000.28,-000.29,0000.08,-000.09,0000.32,-000.16,-000.11,20.4,27.0,,00.0,0642.5,31.1
2021-12-16T17:53:00Z,00000200,01000000,0000.32,-000.47,0000.33,0000.95,0000.05,0000.17,-000.05,-000.01,0000.01,20.5,27.0,,00.0,0642.4,31.1
2021-12-16T17:54:00Z,00000200,01000000,-000.18,0000.24,-000.06,0000.07,0000.20,-000.13,0000.23,-000.00,0000.67,20.5,27.0,,00.0,0642.5,31.1
2021-12-16T17:55:00Z,00000200,01000000,0000.37,0000.02,-000.13,0000.53,-000.06,0000.03,-000.03,0000.14,-000.60,20.5,27.0,,00.0,0642.5,31.1
2021-12-16T17:56:00Z,00000200,01000000,0000.06,-000.23,-000.27,0000.32,0000.39,-000.24,-000.14,0000.05,0000.23,20.6,27.0,,00.0,0642.5,31.2
2021-12-16T17:57:00Z,00000200,41000000,,,,,,,-000.00,-000.23,-000.28,20.7,27.1,,00.0,0642.5,31.2
2021-12-16T17:58:00Z,00000200,61000000,,,,,,,0000.08,0000.23,0000.19,20.4,27.2,,00.0,0641.6,31.2
2021-12-16T17:59:00Z,00000200,21000000,,,,,,,0000.31,0000.00,-000.01,20.4,27.3,,00.0,0641.5,31.2
